Check out our new BloomSky Weather System.

Active alerts


No alerts


Thunder radar  blitzortung!


Rain radar more information rain snow radar


Visit our other weather sites:

Template documentation
and downloads

And another site



Weather Underground History page Text

Daily Summary for May 31, 2017 Units:  Metric    English   Both
« Previous Day
Next Day »
Daily Weekly Monthly Yearly Custom
  High: Low: Average:
Temperature: 31.3 °C 22.1 °C 26.4 °C
Dew Point: 24.1 °C 21.4 °C 22.5 °C
Humidity: 97 % 58 % 80 %
Wind Speed: 11.3 km/h 0 km/h 2.1 km/h
Wind Gust: 16.1 km/h - -
Wind:- - SE
Pressure: 1016.8 hPa 1013.1 hPa -
Precipitation: 0 mm    
Historical Graphs
 
 
Tabular Data for May 31, 2017
Time Temperature Dew Point Pressure Wind Wind Speed Wind Gust Humidity Rainfall Rate (Hourly)
00:01 24.6 °C 22.3 °C 1015.5 hPa ESE 6.4 km/h 11.3 km/h 87 % 0 mm
00:06 24.6 °C 22.3 °C 1015.5 hPa East 6.4 km/h 9.7 km/h 87 % 0 mm
00:11 24.5 °C 22.2 °C 1015.5 hPa East 3.2 km/h 8 km/h 87 % 0 mm
00:16 24.4 °C 22.1 °C 1015.5 hPa Calm   8 km/h 87 % 0 mm
00:21 24.3 °C 22.2 °C 1015.5 hPa Calm   8 km/h 88 % 0 mm
00:26 24.3 °C 22.2 °C 1015.5 hPa East 1.6 km/h 8 km/h 88 % 0 mm
00:31 24.2 °C 22.1 °C 1015.5 hPa Calm   8 km/h 88 % 0 mm
00:36 24.2 °C 22.1 °C 1015.5 hPa Calm   4.8 km/h 88 % 0 mm
00:41 24.1 °C 22.2 °C 1015.5 hPa Calm   4.8 km/h 89 % 0 mm
00:46 24.1 °C 22.2 °C 1015.5 hPa ESE 3.2 km/h 6.4 km/h 89 % 0 mm
00:51 24 °C 22.1 °C 1015.5 hPa Calm   6.4 km/h 89 % 0 mm
00:56 23.9 °C 22 °C 1015.5 hPa SE 1.6 km/h 6.4 km/h 89 % 0 mm
01:01 23.9 °C 22.2 °C 1015.5 hPa ENE 1.6 km/h 8 km/h 90 % 0 mm
01:06 23.9 °C 22.2 °C 1015.5 hPa Calm   8 km/h 90 % 0 mm
01:11 23.9 °C 22.2 °C 1015.5 hPa East 1.6 km/h 8 km/h 90 % 0 mm
01:16 23.9 °C 22.2 °C 1015.5 hPa Calm   8 km/h 90 % 0 mm
01:21 23.8 °C 22.1 °C 1015.5 hPa Calm   9.7 km/h 90 % 0 mm
01:26 23.8 °C 22.1 °C 1015.5 hPa Calm   9.7 km/h 90 % 0 mm
01:31 23.8 °C 22.1 °C 1015.5 hPa East 1.6 km/h 9.7 km/h 90 % 0 mm
01:36 23.8 °C 22.1 °C 1015.5 hPa East 3.2 km/h 6.4 km/h 90 % 0 mm
01:41 23.7 °C 22 °C 1015.5 hPa Calm   6.4 km/h 90 % 0 mm
01:46 23.7 °C 22.1 °C 1015.5 hPa Calm   8 km/h 91 % 0 mm
01:51 23.6 °C 22 °C 1015.5 hPa SSE 1.6 km/h 8 km/h 91 % 0 mm
01:56 23.6 °C 22 °C 1015.5 hPa Calm   8 km/h 91 % 0 mm
02:01 23.6 °C 22 °C 1015.5 hPa Calm   1.6 km/h 91 % 0 mm
02:06 23.5 °C 21.9 °C 1015.1 hPa Calm   1.6 km/h 91 % 0 mm
02:11 23.4 °C 21.8 °C 1015.1 hPa Calm   1.6 km/h 91 % 0 mm
02:16 23.4 °C 21.8 °C 1014.8 hPa Calm   1.6 km/h 91 % 0 mm
02:21 23.3 °C 21.7 °C 1014.8 hPa Calm   1.6 km/h 91 % 0 mm
02:26 23.2 °C 21.8 °C 1014.8 hPa Calm   1.6 km/h 92 % 0 mm
02:31 23.1 °C 21.7 °C 1014.8 hPa Calm   1.6 km/h 92 % 0 mm
02:32 23.1 °C 21.7 °C 1015.1 hPa Calm   1.6 km/h 92 % 0 mm
02:37 23.1 °C 21.7 °C 1015.1 hPa Calm   3.2 km/h 92 % 0 mm
02:42 23 °C 21.6 °C 1015.1 hPa Calm   3.2 km/h 92 % 0 mm
02:47 22.9 °C 21.7 °C 1014.8 hPa Calm   3.2 km/h 93 % 0 mm
02:52 22.9 °C 21.7 °C 1014.8 hPa Calm   3.2 km/h 93 % 0 mm
02:58 22.9 °C 21.7 °C 1014.8 hPa East 3.2 km/h 4.8 km/h 93 % 0 mm
03:03 22.9 °C 21.7 °C 1014.4 hPa NE 3.2 km/h 6.4 km/h 93 % 0 mm
03:08 22.8 °C 21.6 °C 1014.8 hPa Calm   6.4 km/h 93 % 0 mm
03:13 22.8 °C 21.6 °C 1014.4 hPa Calm   6.4 km/h 93 % 0 mm
03:18 22.7 °C 21.7 °C 1014.8 hPa Calm   4.8 km/h 94 % 0 mm
03:23 22.7 °C 21.7 °C 1014.8 hPa Calm   4.8 km/h 94 % 0 mm
03:28 22.7 °C 21.7 °C 1014.4 hPa NNW 1.6 km/h 4.8 km/h 94 % 0 mm
03:33 22.6 °C 21.6 °C 1014.8 hPa ENE 1.6 km/h 6.4 km/h 94 % 0 mm
03:38 22.6 °C 21.6 °C 1014.8 hPa Calm   6.4 km/h 94 % 0 mm
03:43 22.6 °C 21.6 °C 1014.8 hPa Calm   6.4 km/h 94 % 0 mm
03:48 22.5 °C 21.5 °C 1014.8 hPa Calm   4.8 km/h 94 % 0 mm
03:53 22.5 °C 21.5 °C 1014.8 hPa Calm   3.2 km/h 94 % 0 mm
03:58 22.5 °C 21.7 °C 1014.8 hPa Calm   1.6 km/h 95 % 0 mm
04:03 22.4 °C 21.6 °C 1014.8 hPa Calm   3.2 km/h 95 % 0 mm
04:08 22.4 °C 21.6 °C 1015.1 hPa Calm   3.2 km/h 95 % 0 mm
04:13 22.4 °C 21.6 °C 1014.8 hPa Calm   3.2 km/h 95 % 0 mm
04:18 22.3 °C 21.5 °C 1014.8 hPa Calm   3.2 km/h 95 % 0 mm
04:23 22.3 °C 21.5 °C 1014.8 hPa Calm   3.2 km/h 95 % 0 mm
04:28 22.3 °C 21.5 °C 1014.8 hPa Calm   3.2 km/h 95 % 0 mm
04:33 22.3 °C 21.5 °C 1015.1 hPa Calm   4.8 km/h 95 % 0 mm
04:38 22.2 °C 21.4 °C 1015.1 hPa Calm   4.8 km/h 95 % 0 mm
04:43 22.2 °C 21.4 °C 1015.1 hPa Calm   4.8 km/h 95 % 0 mm
04:48 22.2 °C 21.4 °C 1015.1 hPa Calm   3.2 km/h 95 % 0 mm
04:53 22.2 °C 21.4 °C 1015.1 hPa Calm   1.6 km/h 95 % 0 mm
04:58 22.2 °C 21.4 °C 1015.1 hPa Calm   1.6 km/h 95 % 0 mm
05:03 22.2 °C 21.4 °C 1015.1 hPa Calm   1.6 km/h 95 % 0 mm
05:08 22.1 °C 21.4 °C 1015.1 hPa Calm   1.6 km/h 96 % 0 mm
05:13 22.1 °C 21.4 °C 1015.1 hPa Calm   1.6 km/h 96 % 0 mm
05:18 22.1 °C 21.4 °C 1015.1 hPa Calm   1.6 km/h 96 % 0 mm
05:23 22.2 °C 21.5 °C 1015.1 hPa Calm   4.8 km/h 96 % 0 mm
05:28 22.2 °C 21.5 °C 1015.5 hPa Calm   4.8 km/h 96 % 0 mm
05:34 22.2 °C 21.5 °C 1015.5 hPa Calm   4.8 km/h 96 % 0 mm
05:39 22.2 °C 21.5 °C 1015.5 hPa Calm   3.2 km/h 96 % 0 mm
05:44 22.2 °C 21.5 °C 1015.5 hPa Calm   3.2 km/h 96 % 0 mm
05:49 22.2 °C 21.5 °C 1015.5 hPa North 1.6 km/h 3.2 km/h 96 % 0 mm
05:54 22.2 °C 21.5 °C 1015.5 hPa Calm   3.2 km/h 96 % 0 mm
05:59 22.2 °C 21.5 °C 1015.5 hPa Calm   3.2 km/h 96 % 0 mm
06:04 22.2 °C 21.5 °C 1015.5 hPa Calm   3.2 km/h 96 % 0 mm
06:09 22.2 °C 21.5 °C 1015.5 hPa ENE 1.6 km/h 3.2 km/h 96 % 0 mm
06:14 22.3 °C 21.6 °C 1015.5 hPa Calm   4.8 km/h 96 % 0 mm
06:19 22.3 °C 21.6 °C 1015.8 hPa NW 3.2 km/h 4.8 km/h 96 % 0 mm
06:24 22.3 °C 21.6 °C 1015.8 hPa Calm   4.8 km/h 96 % 0 mm
06:29 22.3 °C 21.6 °C 1015.8 hPa Calm   4.8 km/h 96 % 0 mm
06:34 22.3 °C 21.6 °C 1015.8 hPa Calm   4.8 km/h 96 % 0 mm
06:39 22.3 °C 21.6 °C 1015.8 hPa Calm   3.2 km/h 96 % 0 mm
06:44 22.3 °C 21.6 °C 1015.8 hPa Calm   3.2 km/h 96 % 0 mm
06:49 22.3 °C 21.6 °C 1015.8 hPa Calm   3.2 km/h 96 % 0 mm
06:54 22.3 °C 21.6 °C 1015.8 hPa East 1.6 km/h 3.2 km/h 96 % 0 mm
06:59 22.3 °C 21.6 °C 1015.8 hPa East 1.6 km/h 3.2 km/h 96 % 0 mm
07:04 22.3 °C 21.6 °C 1015.8 hPa Calm   1.6 km/h 96 % 0 mm
07:14 22.4 °C 21.7 °C 1015.8 hPa Calm   4.8 km/h 96 % 0 mm
07:19 22.4 °C 21.7 °C 1015.8 hPa Calm   4.8 km/h 96 % 0 mm
07:24 22.4 °C 21.7 °C 1015.8 hPa Calm   3.2 km/h 96 % 0 mm
07:29 22.5 °C 21.8 °C 1015.8 hPa Calm   3.2 km/h 96 % 0 mm
07:34 22.6 °C 22.1 °C 1015.8 hPa Calm   3.2 km/h 97 % 0 mm
07:39 22.6 °C 21.9 °C 1016.1 hPa NNE 1.6 km/h 1.6 km/h 96 % 0 mm
07:44 22.6 °C 21.9 °C 1016.1 hPa Calm   3.2 km/h 96 % 0 mm
07:49 22.7 °C 22 °C 1016.1 hPa Calm   4.8 km/h 96 % 0 mm
07:54 22.7 °C 22 °C 1016.1 hPa NNW 1.6 km/h 4.8 km/h 96 % 0 mm
07:59 22.8 °C 22.1 °C 1016.1 hPa Calm   4.8 km/h 96 % 0 mm
08:04 22.8 °C 22.1 °C 1016.1 hPa Calm   4.8 km/h 96 % 0 mm
08:09 22.9 °C 22.2 °C 1016.1 hPa Calm   6.4 km/h 96 % 0 mm
08:14 23 °C 22.3 °C 1016.1 hPa Calm   6.4 km/h 96 % 0 mm
08:19 23.2 °C 22.5 °C 1016.1 hPa NW 1.6 km/h 6.4 km/h 96 % 0 mm
08:25 23.3 °C 22.5 °C 1016.1 hPa Calm   4.8 km/h 95 % 0 mm
08:30 23.3 °C 22.5 °C 1016.5 hPa NNW 3.2 km/h 6.4 km/h 95 % 0 mm
08:35 23.4 °C 22.4 °C 1016.5 hPa NNW 3.2 km/h 6.4 km/h 94 % 0 mm
08:40 23.5 °C 22.5 °C 1016.5 hPa NNW 1.6 km/h 6.4 km/h 94 % 0 mm
08:45 23.7 °C 22.7 °C 1016.5 hPa Calm   6.4 km/h 94 % 0 mm
08:50 23.7 °C 22.5 °C 1016.5 hPa Calm   6.4 km/h 93 % 0 mm
08:55 23.8 °C 22.6 °C 1016.5 hPa East 3.2 km/h 6.4 km/h 93 % 0 mm
09:00 23.8 °C 22.6 °C 1016.5 hPa West 1.6 km/h 6.4 km/h 93 % 0 mm
09:05 23.9 °C 22.5 °C 1016.5 hPa East 3.2 km/h 9.7 km/h 92 % 0 mm
09:10 23.9 °C 22.3 °C 1016.5 hPa SSE 1.6 km/h 9.7 km/h 91 % 0 mm
09:15 24.1 °C 22.7 °C 1016.5 hPa Calm   9.7 km/h 92 % 0 mm
09:20 24.4 °C 22.8 °C 1016.5 hPa ENE 1.6 km/h 8 km/h 91 % 0 mm
09:25 24.6 °C 22.8 °C 1016.8 hPa ENE 3.2 km/h 8 km/h 90 % 0 mm
09:30 24.6 °C 22.7 °C 1016.5 hPa NW 1.6 km/h 8 km/h 89 % 0 mm
09:35 24.9 °C 22.8 °C 1016.5 hPa North 3.2 km/h 4.8 km/h 88 % 0 mm
09:40 25 °C 22.9 °C 1016.5 hPa ENE 3.2 km/h 6.4 km/h 88 % 0 mm
09:45 25.1 °C 22.8 °C 1016.5 hPa ENE 3.2 km/h 8 km/h 87 % 0 mm
09:50 25.1 °C 22.8 °C 1016.5 hPa Calm   8 km/h 87 % 0 mm
09:55 25.2 °C 22.7 °C 1016.5 hPa North 1.6 km/h 8 km/h 86 % 0 mm
09:57 25.2 °C 22.7 °C 1016.5 hPa East 1.6 km/h 8 km/h 86 % 0 mm
10:02 25.3 °C 22.8 °C 1016.5 hPa Calm   8 km/h 86 % 0 mm
10:07 25.4 °C 22.7 °C 1016.5 hPa East 6.4 km/h 8 km/h 85 % 0 mm
10:12 25.6 °C 22.9 °C 1016.5 hPa Calm   8 km/h 85 % 0 mm
10:17 25.7 °C 22.8 °C 1016.5 hPa NW 4.8 km/h 9.7 km/h 84 % 0 mm
10:22 25.6 °C 22.9 °C 1016.5 hPa ESE 3.2 km/h 9.7 km/h 85 % 0 mm
10:27 25.7 °C 22.8 °C 1016.5 hPa ENE 3.2 km/h 9.7 km/h 84 % 0 mm
10:32 25.8 °C 22.9 °C 1016.5 hPa ESE 1.6 km/h 8 km/h 84 % 0 mm
10:37 25.8 °C 22.9 °C 1016.5 hPa North 3.2 km/h 8 km/h 84 % 0 mm
10:42 25.9 °C 23 °C 1016.1 hPa ENE 4.8 km/h 8 km/h 84 % 0 mm
10:47 26.2 °C 23.1 °C 1016.1 hPa NNW 3.2 km/h 8 km/h 83 % 0 mm
10:52 26.3 °C 23 °C 1016.1 hPa North 1.6 km/h 8 km/h 82 % 0 mm
10:57 26.4 °C 23.1 °C 1016.1 hPa Calm   8 km/h 82 % 0 mm
11:02 26.6 °C 23.5 °C 1016.1 hPa NNW 4.8 km/h 8 km/h 83 % 0 mm
11:07 27.1 °C 23.3 °C 1016.1 hPa NW 3.2 km/h 8 km/h 80 % 0 mm
11:12 27.3 °C 23.3 °C 1016.1 hPa ENE 6.4 km/h 8 km/h 79 % 0 mm
11:13 27.3 °C 23.1 °C 1016.1 hPa Calm   8 km/h 78 % 0 mm
11:18 27.6 °C 23.4 °C 1016.1 hPa North 1.6 km/h 6.4 km/h 78 % 0 mm
11:23 27.6 °C 23.4 °C 1016.1 hPa North 3.2 km/h 8 km/h 78 % 0 mm
11:28 27.8 °C 23.6 °C 1016.1 hPa WNW 1.6 km/h 8 km/h 78 % 0 mm
11:33 28.1 °C 23.5 °C 1016.1 hPa NNE 3.2 km/h 9.7 km/h 76 % 0 mm
11:39 28.1 °C 23.7 °C 1016.1 hPa NNW 4.8 km/h 9.7 km/h 77 % 0 mm
11:44 28.3 °C 23.4 °C 1016.1 hPa Calm   9.7 km/h 75 % 0 mm
11:49 28.8 °C 23.9 °C 1016.1 hPa Calm   8 km/h 75 % 0 mm
11:54 28.9 °C 23.8 °C 1016.1 hPa East 6.4 km/h 8 km/h 74 % 0 mm
11:59 29 °C 23.7 °C 1016.1 hPa North 4.8 km/h 9.7 km/h 73 % 0 mm
12:04 29.3 °C 24 °C 1016.1 hPa East 6.4 km/h 9.7 km/h 73 % 0 mm
12:09 29.2 °C 23.2 °C 1016.1 hPa ENE 1.6 km/h 9.7 km/h 70 % 0 mm
12:14 29.3 °C 23.5 °C 1016.1 hPa NNW 4.8 km/h 9.7 km/h 71 % 0 mm
12:19 29.6 °C 23.8 °C 1016.1 hPa ESE 3.2 km/h 9.7 km/h 71 % 0 mm
12:24 29.6 °C 23.5 °C 1016.1 hPa Calm   14.5 km/h 70 % 0 mm
12:29 29.8 °C 23 °C 1015.8 hPa ENE 3.2 km/h 14.5 km/h 67 % 0 mm
12:34 29.7 °C 23.4 °C 1015.8 hPa Calm   14.5 km/h 69 % 0 mm
12:39 29.7 °C 23.9 °C 1015.8 hPa NE 4.8 km/h 9.7 km/h 71 % 0 mm
12:49 29.6 °C 23.3 °C 1015.8 hPa North 3.2 km/h 8 km/h 69 % 0 mm
12:54 29.5 °C 23.4 °C 1015.8 hPa ESE 6.4 km/h 9.7 km/h 70 % 0 mm
12:59 29.2 °C 23.4 °C 1015.5 hPa SW 3.2 km/h 9.7 km/h 71 % 0 mm
13:04 29.3 °C 23.5 °C 1015.5 hPa Calm   9.7 km/h 71 % 0 mm
13:09 29.4 °C 23.6 °C 1015.5 hPa SSE 3.2 km/h 9.7 km/h 71 % 0 mm
13:14 29.2 °C 23.2 °C 1015.5 hPa ENE 1.6 km/h 11.3 km/h 70 % 0 mm
13:19 29.1 °C 23.5 °C 1015.5 hPa ESE 4.8 km/h 11.3 km/h 72 % 0 mm
13:24 29.4 °C 23.4 °C 1015.5 hPa NNW 1.6 km/h 11.3 km/h 70 % 0 mm
13:29 29.9 °C 23.1 °C 1015.5 hPa SW 3.2 km/h 11.3 km/h 67 % 0 mm
13:34 29.9 °C 23.3 °C 1015.5 hPa Calm   11.3 km/h 68 % 0 mm
13:39 29.7 °C 22.9 °C 1015.5 hPa ESE 3.2 km/h 9.7 km/h 67 % 0 mm
13:44 29.7 °C 23.4 °C 1015.5 hPa Calm   11.3 km/h 69 % 0 mm
13:49 30.1 °C 23.3 °C 1015.5 hPa ESE 8 km/h 11.3 km/h 67 % 0 mm
13:54 29.8 °C 23 °C 1015.1 hPa East 11.3 km/h 12.9 km/h 67 % 0 mm
13:59 29.8 °C 23.5 °C 1015.1 hPa ESE 4.8 km/h 14.5 km/h 69 % 0 mm
14:04 30 °C 23.7 °C 1015.1 hPa ESE 9.7 km/h 14.5 km/h 69 % 0 mm
14:09 30.2 °C 23.4 °C 1015.1 hPa ESE 8 km/h 14.5 km/h 67 % 0 mm
14:14 30.2 °C 23.1 °C 1015.1 hPa ENE 3.2 km/h 14.5 km/h 66 % 0 mm
14:19 30.5 °C 23.2 °C 1015.1 hPa SE 9.7 km/h 16.1 km/h 65 % 0 mm
14:24 30.3 °C 23 °C 1015.1 hPa SSE 3.2 km/h 16.1 km/h 65 % 0 mm
14:29 30.4 °C 22.6 °C 1014.8 hPa ESE 9.7 km/h 16.1 km/h 63 % 0 mm
14:34 30.4 °C 23.3 °C 1014.8 hPa North 4.8 km/h 16.1 km/h 66 % 0 mm
14:39 30.8 °C 23.7 °C 1014.8 hPa SE 4.8 km/h 16.1 km/h 66 % 0 mm
14:44 31.2 °C 23.3 °C 1014.8 hPa SE 6.4 km/h 14.5 km/h 63 % 0 mm
14:54 31 °C 22.6 °C 1014.8 hPa ENE 6.4 km/h 11.3 km/h 61 % 0 mm
14:59 30.6 °C 22.7 °C 1014.4 hPa SSE 1.6 km/h 16.1 km/h 63 % 0 mm
15:04 30.8 °C 22.4 °C 1014.4 hPa East 6.4 km/h 16.1 km/h 61 % 0 mm
15:09 30.8 °C 22.7 °C 1014.4 hPa Calm   16.1 km/h 62 % 0 mm
15:14 30.9 °C 22.2 °C 1014.4 hPa Calm   12.9 km/h 60 % 0 mm
15:19 31 °C 22 °C 1014.8 hPa East 3.2 km/h 12.9 km/h 59 % 0 mm
15:24 31 °C 22 °C 1014.4 hPa SSE 3.2 km/h 14.5 km/h 59 % 0 mm
15:29 31.1 °C 22.7 °C 1014.4 hPa SSE 1.6 km/h 14.5 km/h 61 % 0 mm
15:34 31.3 °C 22.6 °C 1014.4 hPa NW 3.2 km/h 14.5 km/h 60 % 0 mm
15:39 31.3 °C 22.3 °C 1014.4 hPa East 3.2 km/h 12.9 km/h 59 % 0 mm
15:44 31.2 °C 22.8 °C 1014.4 hPa East 8 km/h 8 km/h 61 % 0 mm
15:49 31.2 °C 22.5 °C 1014.4 hPa SE 1.6 km/h 9.7 km/h 60 % 0 mm
15:54 31 °C 22 °C 1014.4 hPa Calm   11.3 km/h 59 % 0 mm
15:59 30.9 °C 22.5 °C 1014.1 hPa Calm   14.5 km/h 61 % 0 mm
16:04 30.9 °C 22.5 °C 1014.1 hPa SE 4.8 km/h 14.5 km/h 61 % 0 mm
16:09 30.8 °C 22.1 °C 1014.1 hPa Calm   14.5 km/h 60 % 0 mm
16:14 30.9 °C 22.2 °C 1013.8 hPa ESE 1.6 km/h 11.3 km/h 60 % 0 mm
16:19 31.2 °C 22.8 °C 1013.8 hPa East 1.6 km/h 11.3 km/h 61 % 0 mm
16:24 31.3 °C 22.9 °C 1013.8 hPa ESE 1.6 km/h 11.3 km/h 61 % 0 mm
16:29 31.3 °C 22.6 °C 1013.8 hPa North 1.6 km/h 9.7 km/h 60 % 0 mm
16:34 31 °C 22 °C 1013.8 hPa NE 1.6 km/h 9.7 km/h 59 % 0 mm
16:39 31.1 °C 22.4 °C 1013.8 hPa NE 3.2 km/h 9.7 km/h 60 % 0 mm
16:44 31.3 °C 22.9 °C 1013.4 hPa ESE 4.8 km/h 9.7 km/h 61 % 0 mm
16:49 31.2 °C 22 °C 1013.4 hPa East 9.7 km/h 9.7 km/h 58 % 0 mm
16:55 30.9 °C 22 °C 1013.4 hPa ENE 4.8 km/h 9.7 km/h 59 % 0 mm
17:00 30.8 °C 21.9 °C 1013.4 hPa Calm   9.7 km/h 59 % 0 mm
17:05 30.7 °C 22 °C 1013.4 hPa East 4.8 km/h 9.7 km/h 60 % 0 mm
17:10 30.7 °C 22 °C 1013.4 hPa ESE 1.6 km/h 8 km/h 60 % 0 mm
17:15 30.7 °C 22 °C 1013.4 hPa East 3.2 km/h 8 km/h 60 % 0 mm
17:20 30.6 °C 22.2 °C 1013.1 hPa NE 3.2 km/h 8 km/h 61 % 0 mm
17:25 30.6 °C 22.2 °C 1013.1 hPa ESE 1.6 km/h 8 km/h 61 % 0 mm
17:30 30.5 °C 22.4 °C 1013.1 hPa NE 3.2 km/h 8 km/h 62 % 0 mm
17:35 30.5 °C 22.1 °C 1013.4 hPa Calm   8 km/h 61 % 0 mm
17:40 30.4 °C 22 °C 1013.1 hPa ENE 1.6 km/h 8 km/h 61 % 0 mm
17:45 30.4 °C 22 °C 1013.1 hPa Calm   8 km/h 61 % 0 mm
17:50 30.4 °C 22 °C 1013.4 hPa Calm   8 km/h 61 % 0 mm
17:55 30.4 °C 22.3 °C 1013.4 hPa SE 3.2 km/h 9.7 km/h 62 % 0 mm
18:00 30.3 °C 22.2 °C 1013.4 hPa NE 1.6 km/h 9.7 km/h 62 % 0 mm
18:05 30.4 °C 22.3 °C 1013.4 hPa Calm   9.7 km/h 62 % 0 mm
18:10 30.4 °C 22.3 °C 1013.4 hPa Calm   9.7 km/h 62 % 0 mm
18:15 30.5 °C 22.4 °C 1013.4 hPa ESE 4.8 km/h 11.3 km/h 62 % 0 mm
18:16 30.5 °C 22.4 °C 1013.4 hPa NE 3.2 km/h 11.3 km/h 62 % 0 mm
18:21 30.4 °C 22.3 °C 1013.4 hPa Calm   11.3 km/h 62 % 0 mm
18:26 30.3 °C 22.2 °C 1013.4 hPa Calm   11.3 km/h 62 % 0 mm
18:31 30.3 °C 22.2 °C 1013.4 hPa SE 1.6 km/h 8 km/h 62 % 0 mm
18:36 30.2 °C 22.4 °C 1013.4 hPa East 1.6 km/h 9.7 km/h 63 % 0 mm
18:41 30.1 °C 22.5 °C 1013.4 hPa Calm   9.7 km/h 64 % 0 mm
18:46 29.9 °C 22.6 °C 1013.4 hPa East 4.8 km/h 9.7 km/h 65 % 0 mm
18:51 29.8 °C 22.8 °C 1013.4 hPa SE 3.2 km/h 9.7 km/h 66 % 0 mm
18:56 29.7 °C 22.9 °C 1013.8 hPa East 9.7 km/h 11.3 km/h 67 % 0 mm
19:01 29.5 °C 22.7 °C 1013.8 hPa SSE 9.7 km/h 12.9 km/h 67 % 0 mm
19:06 29.3 °C 22.8 °C 1013.8 hPa East 3.2 km/h 12.9 km/h 68 % 0 mm
19:11 29.3 °C 23 °C 1013.8 hPa ESE 9.7 km/h 12.9 km/h 69 % 0 mm
19:16 29.2 °C 22.9 °C 1013.8 hPa ESE 9.7 km/h 12.9 km/h 69 % 0 mm
19:21 29.1 °C 22.8 °C 1013.8 hPa SE 3.2 km/h 12.9 km/h 69 % 0 mm
19:26 29 °C 22.7 °C 1013.8 hPa SSE 4.8 km/h 12.9 km/h 69 % 0 mm
19:31 28.9 °C 22.6 °C 1013.8 hPa SE 6.4 km/h 12.9 km/h 69 % 0 mm
19:32 28.9 °C 22.6 °C 1013.8 hPa ESE 6.4 km/h 12.9 km/h 69 % 0 mm
19:37 28.9 °C 22.6 °C 1013.8 hPa SSE 4.8 km/h 12.9 km/h 69 % 0 mm
19:42 28.9 °C 22.6 °C 1013.8 hPa SE 6.4 km/h 12.9 km/h 69 % 0 mm
19:47 28.8 °C 22.5 °C 1013.8 hPa ESE 1.6 km/h 12.9 km/h 69 % 0 mm
19:48 28.8 °C 22.8 °C 1013.8 hPa East 6.4 km/h 12.9 km/h 70 % 0 mm
19:53 28.8 °C 22.8 °C 1013.8 hPa SE 1.6 km/h 12.9 km/h 70 % 0 mm
19:58 28.7 °C 22.4 °C 1013.8 hPa ESE 6.4 km/h 12.9 km/h 69 % 0 mm
20:03 28.6 °C 22.6 °C 1013.8 hPa SE 3.2 km/h 9.7 km/h 70 % 0 mm
20:08 28.5 °C 22.5 °C 1013.8 hPa SE 1.6 km/h 9.7 km/h 70 % 0 mm
20:13 28.4 °C 22.6 °C 1013.8 hPa SE 3.2 km/h 9.7 km/h 71 % 0 mm
20:18 28.3 °C 22.8 °C 1013.8 hPa SE 1.6 km/h 9.7 km/h 72 % 0 mm
20:23 28.3 °C 22.8 °C 1013.8 hPa SSE 3.2 km/h 8 km/h 72 % 0 mm
20:28 28.2 °C 22.9 °C 1013.8 hPa SW 3.2 km/h 8 km/h 73 % 0 mm
20:33 28.1 °C 22.8 °C 1013.8 hPa Calm   6.4 km/h 73 % 0 mm
20:38 27.9 °C 22.8 °C 1013.4 hPa Calm   6.4 km/h 74 % 0 mm
20:43 27.8 °C 22.7 °C 1013.4 hPa Calm   6.4 km/h 74 % 0 mm
20:48 27.7 °C 22.6 °C 1013.8 hPa Calm   6.4 km/h 74 % 0 mm
20:53 27.6 °C 22.8 °C 1013.8 hPa Calm   3.2 km/h 75 % 0 mm
20:59 27.6 °C 22.8 °C 1013.8 hPa Calm   3.2 km/h 75 % 0 mm
21:04 27.5 °C 22.7 °C 1013.8 hPa Calm   3.2 km/h 75 % 0 mm
21:09 27.4 °C 22.8 °C 1013.8 hPa Calm   3.2 km/h 76 % 0 mm
21:14 27.3 °C 22.7 °C 1013.8 hPa Calm   3.2 km/h 76 % 0 mm
21:19 27.3 °C 22.7 °C 1014.1 hPa ESE 1.6 km/h 3.2 km/h 76 % 0 mm
21:29 27.3 °C 22.9 °C 1014.1 hPa ENE 3.2 km/h 4.8 km/h 77 % 0 mm
21:34 27.2 °C 22.8 °C 1014.4 hPa Calm   4.8 km/h 77 % 0 mm
21:39 27.2 °C 22.8 °C 1014.4 hPa SE 3.2 km/h 4.8 km/h 77 % 0 mm
21:44 27.1 °C 22.9 °C 1014.4 hPa ESE 3.2 km/h 4.8 km/h 78 % 0 mm
21:49 27.1 °C 22.9 °C 1014.4 hPa Calm   4.8 km/h 78 % 0 mm
21:54 27 °C 22.8 °C 1014.8 hPa Calm   3.2 km/h 78 % 0 mm
21:59 26.9 °C 22.9 °C 1014.8 hPa SSW 1.6 km/h 3.2 km/h 79 % 0 mm
22:04 26.7 °C 23 °C 1014.8 hPa SE 6.4 km/h 6.4 km/h 80 % 0 mm
22:09 26.8 °C 23.3 °C 1014.8 hPa SE 3.2 km/h 8 km/h 81 % 0 mm
22:14 26.8 °C 23.3 °C 1014.8 hPa SSE 3.2 km/h 8 km/h 81 % 0 mm
22:19 26.8 °C 23.5 °C 1014.8 hPa South 3.2 km/h 8 km/h 82 % 0 mm
22:24 26.8 °C 23.5 °C 1015.1 hPa South 4.8 km/h 8 km/h 82 % 0 mm
22:29 26.7 °C 23.4 °C 1015.1 hPa SSE 4.8 km/h 8 km/h 82 % 0 mm
22:34 26.7 °C 23.6 °C 1015.1 hPa SSE 3.2 km/h 11.3 km/h 83 % 0 mm
22:39 26.7 °C 23.6 °C 1015.1 hPa SE 1.6 km/h 11.3 km/h 83 % 0 mm
22:44 26.6 °C 23.5 °C 1015.5 hPa South 1.6 km/h 11.3 km/h 83 % 0 mm
22:49 26.6 °C 23.7 °C 1015.5 hPa SSW 1.6 km/h 9.7 km/h 84 % 0 mm
22:54 26.4 °C 23.5 °C 1015.5 hPa SSE 3.2 km/h 8 km/h 84 % 0 mm
22:59 26.4 °C 23.7 °C 1015.5 hPa Calm   6.4 km/h 85 % 0 mm
23:04 26.3 °C 23.6 °C 1015.5 hPa Calm   6.4 km/h 85 % 0 mm
23:09 26.3 °C 23.8 °C 1015.5 hPa SSE 4.8 km/h 4.8 km/h 86 % 0 mm
23:14 26.2 °C 23.7 °C 1015.5 hPa South 1.6 km/h 4.8 km/h 86 % 0 mm
23:19 26.2 °C 23.7 °C 1015.5 hPa SSW 3.2 km/h 4.8 km/h 86 % 0 mm
23:24 26.3 °C 23.8 °C 1015.5 hPa South 4.8 km/h 4.8 km/h 86 % 0 mm
23:29 26.3 °C 23.8 °C 1015.5 hPa SSW 3.2 km/h 6.4 km/h 86 % 0 mm
23:34 26.3 °C 24 °C 1015.5 hPa SSE 6.4 km/h 8 km/h 87 % 0 mm
23:39 26.3 °C 24 °C 1015.5 hPa SSE 1.6 km/h 9.7 km/h 87 % 0 mm
23:44 26.2 °C 24.1 °C 1015.5 hPa SSE 3.2 km/h 9.7 km/h 88 % 0 mm
23:49 26.1 °C 24.1 °C 1015.5 hPa SW 1.6 km/h 9.7 km/h 89 % 0 mm
23:50 26.1 °C 24.1 °C 1015.5 hPa SSW 3.2 km/h 9.7 km/h 89 % 0 mm
23:55 25.9 °C 23.9 °C 1015.5 hPa South 1.6 km/h 9.7 km/h 89 % 0 mm
Spring, Texas: Villages of Bridgestone
Compliments of Weather Underground - 2.75 mb

Script developed by  Jim McMurry - jmcmurry@mwt.net Adapted for the template by  Wim van der Kuil - Leuven-Template.eu

You find our weather info also at:

UK Metoffice

WeatherCloud

Weather Underground

Mid-South Weather Network

AWEKAS

Citizen Weather Observer Program (CWOP)

HAMweather, WeatherForYou, PWS Weather

Equipment we use:

Weather-station
Davis Vantage Vue

Weather-program
Meteohub

Weather-server
Debian 7.9 x86 (Guest)

Provider
DreamHost

Davis Vantage Vue

Meteohub

Debian 7.9 x86 (Guest)

DreamHost